Lid_Strength_Index
3 3 3 3 3 3 3 3 3 3 3 3 3 3 3 3 3 5 8 4 4 3 4 6 7 7 7 8 7 7 12 13 12 12 11 9 10 8 7 9 8 7 7 6 5
3 3 3 3 3 4 4 4 3 3 3 3 3 3 3 3 5 8 4 2 3 3 6 7 9 8 10 10 8 10 12 12 9 9 10 9 9 9 10 10 10 9 7 6 5
4 3 4 4 4 4 4 4 3 3 3 3 3 3 3 3 8 9 3 3 3 3 5 6 7 8 10 9 9 10 12 10 9 8 7 8 9 8 10 12 10 10 9 8 8
4 4 4 4 4 4 4 4 3 3 3 3 3 3 3 5 15 7 3 2 2 4 6 7 8 10 11 12 10 12 10 10 9 8 9 10 8 10 9 10 8 8 8 8 8
4 4 4 4 4 4 4 3 3 4 4 3 3 3 6 11 10 5 4 4 4 5 7 8 9 10 12 11 10 11 11 10 9 9 9 9 10 10 10 8 7 7 8 8 8
3 4 4 4 4 4 4 4 4 4 3 4 4 4 8 13 6 4 5 5 5 6 7 7 9 9 10 11 11 10 11 10 10 10 10 11 11 10 10 8 8 8 8 7 7
4 4 4 4 4 4 4 5 5 4 4 4 3 5 10 11 5 4 6 6 5 6 8 7 6 8 9 11 9 10 12 11 10 10 11 10 13 12 9 8 9 8 8 8 7
4 4 5 5 4 4 5 5 5 4 4 3 4 6 11 6 5 7 6 7 6 5 6 6 6 8 9 9 11 12 13 15 12 11 11 12 15 11 8 9 9 8 8 7 7
5 5 5 5 5 5 5 6 6 5 4 3 7 8 12 7 9 7 6 8 7 6 6 6 7 10 11 13 14 13 16 16 14 11 12 12 14 10 8 9 9 8 7 7 6
5 5 5 5 5 6 6 6 7 7 8 6 9 10 10 11 8 7 6 7 8 8 9 10 10 12 12 13 18 17 17 15 15 13 12 13 13 11 9 9 9 8 7 6 6
5 5 5 5 6 6 8 9 10 11 10 12 12 12 11 8 7 9 7 8 9 10 14 12 14 15 14 14 14 15 15 16 13 11 13 13 13 11 9 9 8 8 7 6 6
5 5 5 5 7 7 8 11 11 11 13 12 12 11 10 9 12 10 8 12 13 15 13 14 15 13 13 13 14 14 15 15 13 12 13 13 13 10 10 9 9 8 7 7 6
6 6 5 6 7 9 10 11 8 9 13 13 12 12 12 11 13 12 11 12 13 14 15 16 14 13 13 14 15 15 16 15 15 14 13 13 13 12 10 9 9 9 9 8 7
6 6 6 6 9 10 11 10 9 8 13 15 14 13 11 11 14 11 10 12 13 16 15 15 13 14 15 15 15 19 14 16 16 17 19 13 18 14 12 12 11 11 11 10 9
6 6 6 8 10 12 11 10 9 10 16 14 14 10 11 13 13 12 10 12 15 15 15 16 16 16 17 16 15 17 15 16 16 17 16 15 16 16 14 15 15 13 12 11 9
6 6 7 9 9 10 10 9 10 14 18 16 14 15 15 14 14 12 12 11 12 15 15 15 14 15 15 14 14 14 17 16 14 15 18 15 15 19 17 17 16 14 14 12 9
6 7 8 9 11 10 10 11 14 17 15 17 17 15 16 16 15 15 15 16 18 20 19 17 16 14 14 16 14 15 18 21 19 19 20 14 15 17 16 16 15 17 15 7 8
6 9 9 10 10 10 12 12 17 20 19 17 16 16 18 17 16 16 16 17 15 17 20 22 21 17 14 16 18 17 18 22 25 22 20 14 20 16 15 15 15 16 9 6 6
9 10 9 10 10 11 12 16 15 19 18 18 17 18 17 17 17 17 17 17 16 16 20 21 20 15 14 14 16 18 20 17 21 18 19 17 17 14 16 17 18 18 10 8 6
10 11 11 11 12 12 13 17 18 18 16 17 18 19 20 19 18 18 17 16 17 15 15 18 22 17 15 14 15 17 16 21 19 23 22 18 20 22 21 21 20 20 15 9 8
12 12 12 12 12 12 15 18 20 17 16 17 19 19 19 19 19 19 18 16 15 15 15 16 19 18 16 17 19 19 20 19 19 18 21 21 20 19 21 21 21 19 15 10 10
13 15 12 12 14 20 17 20 17 17 15 16 16 18 19 19 19 19 19 17 14 15 17 16 18 20 20 15 14 17 20 19 20 22 19 20 20 18 19 20 19 19 16 12 11
13 13 12 12 15 17 21 19 17 17 16 16 17 16 19 19 20 20 18 15 14 15 17 15 17 20 20 17 15 19 19 18 18 18 22 22 20 17 19 20 19 19 17 15 14
14 15 14 14 16 17 19 19 19 16 16 15 16 15 19 20 19 20 18 16 15 15 14 15 18 20 21 20 18 21 20 19 20 22 22 22 22 21 21 21 20 20 19 18 18
15 16 19 15 16 17 17 18 19 19 16 15 16 17 18 21 21 21 18 16 15 14 15 16 19 21 20 19 17 19 21 21 22 22 23 22 22 21 21 22 23 21 21 21 21
15 16 18 19 18 17 17 18 18 18 17 17 18 18 18 19 17 19 18 17 17 15 16 16 18 20 21 21 21 19 19 20 21 22 21 22 22 20 21 22 24 24 24 24 23
15 15 13 18 18 17 17 18 17 17 16 16 16 17 20 18 16 15 15 15 16 17 17 17 18 19 17 19 19 20 20 21 21 22 23 24 22 20 23 24 25 25 25 25 25